Location: NJAA Observatory
(40.6819°N, 74.8979°W)
Time: 02:52:22
(UTC-05:00)

Iridium 84 - Visible Passes

Search period start: 24 February 2018 00:00
Search period end: 06 March 2018 00:00
Orbit: 776 x 779 km, 86.4° (Epoch: 23 February)

Date Brightness Start Highest point End Pass type
(mag) Time Alt. Az. Time Alt. Az. Time Alt. Az.
24 Feb 7.4 05:22:46 10° SSE 05:27:23 33° E 05:32:01 10° NNE visible
24 Feb 8.9 19:16:16 10° NW 19:18:00 12° WNW 19:19:45 10° W visible
25 Feb 8.4 04:50:38 10° ESE 04:54:08 18° E 04:57:38 10° NE visible
25 Feb 8.3 18:40:57 10° NNW 18:44:51 22° W 18:48:44 10° SW visible
26 Feb 5.6 05:55:37 10° S 06:00:50 89° E 06:06:05 10° N visible
27 Feb 6.6 05:22:24 10° SSE 05:27:23 48° E 05:32:23 10° NNE visible
28 Feb 7.8 04:49:48 10° SE 04:54:03 26° E 04:58:20 10° NNE visible
28 Feb 8.7 18:41:51 10° NW 18:44:45 15° WNW 18:47:38 10° WSW visible
01 Mar 8.6 04:18:08 10° ESE 04:20:51 14° ENE 04:23:36 10° NE visible
01 Mar 5.5 05:55:48 10° SSW 06:00:57 63° W 06:06:09 10° N visible
02 Mar 5.9 05:22:16 10° S 05:27:26 70° E 05:32:37 10° N visible
03 Mar 7.1 04:49:16 10° SSE 04:54:02 38° E 04:58:49 10° NNE visible
03 Mar 9.2 18:44:31 10° WNW 18:44:37 10° WNW 18:44:43 10° WNW visible
04 Mar 8.1 04:16:57 10° SE 04:20:45 21° E 04:24:34 10° NNE visible
04 Mar 5.9 05:56:11 10° SSW 06:01:07 43° W 06:06:06 10° N visible
05 Mar 8.8 03:46:10 10° E 03:47:37 11° ENE 03:49:03 10° ENE visible
05 Mar 5.5 05:22:19 10° S 05:27:32 81° W 05:32:46 10° N visible
